Istanbul, Turkey

6:23 AM +03 on April 25, 2018 (GMT +0300)
Ataturk

Weather History for LTBA - February, 2012

Change the Weather History Date:

Thursday, February 23, 2012

  Actual Average Record
Temperature  
Mean Temperature 43 °F -  
Max Temperature 51 °F 50 °F 64 °F (2002)
Min Temperature 35 °F 39 °F 30 °F (2003)
Degree Days  
Heating Degree Days 22    
Moisture  
Dew Point 34 °F    
Average Humidity 71    
Maximum Humidity 93    
Minimum Humidity 45    
Precipitation  
Precipitation 0.00 in - - ()
Sea Level Pressure  
Sea Level Pressure 30.23 in    
Wind  
Wind Speed 9 mph ()    
Max Wind Speed 14 mph    
Max Gust Speed -    
Visibility 5.6 miles    
Events      
Averages and records for this station are not official NWS values.
T = Trace of Precipitation, MM = Missing Value Source: Averaged Metar Reports

Daily Weather History Graph

Daily Weather History Graph

Search for Another Location

Airport or City:

Astronomy

Feb. 23, 2012 Rise Set
Actual Time 6:49 AM EET 5:47 PM EET
Civil Twilight 6:21 AM EET 6:15 PM EET
Nautical Twilight 5:49 AM EET 6:47 PM EET
Astronomical Twilight 5:17 AM EET 7:19 PM EET
Moon 7:05 AM EET (2/23) 7:35 PM EET (2/23)
Length of Visible Light 11h 54m
Length of Day
10h 58m
New Moon, 2% of the Moon is Illuminated
Feb 23
New Moon
Mar 1
First Quarter
Mar 8
Full
Mar 15
Last Quarter
Mar 22
New

Hourly Weather History & Observations

Time (EET) Temp. Windchill Dew Point Humidity Pressure Visibility Wind Dir Wind Speed Gust Speed Precip Events Conditions
12:20 AM 41.0 °F 35.8 °F 33.8 °F 76% 30.36 in 6.2 mi NE 8.1 mph - N/A   Scattered Clouds
12:50 AM 41.0 °F 35.2 °F 33.8 °F 76% 30.36 in 6.2 mi NNE 9.2 mph - N/A   Scattered Clouds
1:20 AM 41.0 °F 33.5 °F 33.8 °F 76% 30.33 in 6.2 mi NNE 13.8 mph - N/A   Scattered Clouds
1:50 AM 41.0 °F 33.9 °F 33.8 °F 76% 30.36 in 6.2 mi NE 12.7 mph - N/A   Scattered Clouds
2:00 AM 40 °F - 34 °F 72% 30.37 in 6 mi NE 12.7 mph - -   Partly Cloudy
2:20 AM 41.0 °F 33.9 °F 33.8 °F 76% 30.33 in 6.2 mi NE 12.7 mph - N/A   Scattered Clouds
2:50 AM 41.0 °F 33.9 °F 33.8 °F 76% 30.33 in 6.2 mi NE 12.7 mph - N/A   Scattered Clouds
3:20 AM 41.0 °F 34.3 °F 33.8 °F 76% 30.33 in 6.2 mi NE 11.5 mph - N/A   Scattered Clouds
3:50 AM 41.0 °F 34.7 °F 33.8 °F 76% 30.33 in 6.2 mi NE 10.4 mph - N/A   Scattered Clouds
4:20 AM 41.0 °F 34.3 °F 33.8 °F 76% 30.33 in 5.0 mi NE 11.5 mph - N/A   Scattered Clouds
4:50 AM 41.0 °F 34.7 °F 33.8 °F 76% 30.33 in 3.7 mi NE 10.4 mph - N/A   Scattered Clouds
5:20 AM 41.0 °F 34.3 °F 33.8 °F 76% 30.33 in 4.3 mi ENE 11.5 mph - N/A   Scattered Clouds
5:50 AM 41.0 °F 34.3 °F 33.8 °F 76% 30.33 in 4.3 mi NE 11.5 mph - N/A   Scattered Clouds
6:20 AM 41.0 °F 34.3 °F 32.0 °F 70% 30.33 in 6.2 mi NE 11.5 mph - N/A   Scattered Clouds
6:50 AM 41.0 °F 35.2 °F 33.8 °F 76% 30.30 in 6.2 mi ENE 9.2 mph - N/A   Scattered Clouds
7:20 AM 41.0 °F 35.2 °F 33.8 °F 76% 30.30 in 6.2 mi ENE 9.2 mph - N/A   Mostly Cloudy
7:50 AM 41.0 °F 34.3 °F 33.8 °F 76% 30.30 in 6.2 mi ENE 11.5 mph - N/A   Mostly Cloudy
8:00 AM 41 °F - 33 °F 63% 30.33 in 6 mi ENE 11.5 mph - -   Mostly Cloudy
8:20 AM 41.0 °F 34.7 °F 32.0 °F 70% 30.30 in 6.2 mi ENE 10.4 mph - N/A   Mostly Cloudy
8:50 AM 41.0 °F 34.7 °F 33.8 °F 76% 30.30 in 6.2 mi ENE 10.4 mph - N/A   Scattered Clouds
9:20 AM 42.8 °F 37.5 °F 33.8 °F 70% 30.30 in 6.2 mi ENE 9.2 mph - N/A   Mostly Cloudy
9:50 AM 44.6 °F 39.7 °F 33.8 °F 66% 30.30 in 6.2 mi ENE 9.2 mph - N/A   Mostly Cloudy
10:20 AM 42.8 °F 37.0 °F 33.8 °F 70% 30.30 in 6.2 mi ENE 10.4 mph - N/A   Scattered Clouds
10:50 AM 44.6 °F 39.2 °F 33.8 °F 66% 30.27 in 6.2 mi NNE 10.4 mph - N/A   Mostly Cloudy
11:20 AM 46.4 °F 41.9 °F 33.8 °F 62% 30.27 in 6.2 mi ENE 9.2 mph - N/A   Scattered Clouds
11:50 AM 46.4 °F 42.4 °F 33.8 °F 62% 30.27 in 6.2 mi Variable 8.1 mph - N/A   Scattered Clouds
12:20 PM 48.2 °F - 35.6 °F 62% 30.27 in 6.2 mi Variable 8.1 mph - N/A   Scattered Clouds
12:50 PM 48.2 °F - 33.8 °F 58% 30.24 in 6.2 mi NE 9.2 mph - N/A   Scattered Clouds
1:20 PM 48.2 °F - 33.8 °F 58% 30.21 in - Variable 6.9 mph - N/A   Clear
1:50 PM 48.2 °F - 33.8 °F 58% 30.21 in - NNE 9.2 mph - N/A   Clear
2:00 PM 49 °F - 34 °F 45% 30.23 in 6 mi NNE 9.2 mph - -  
2:20 PM 50.0 °F - 33.8 °F 54% 30.18 in - NNE 9.2 mph - N/A   Clear
2:50 PM 50.0 °F - 33.8 °F 54% 30.18 in - Variable 8.1 mph - N/A   Clear
3:20 PM 51.8 °F - 32.0 °F 47% 30.15 in - NE 6.9 mph - N/A   Clear
3:50 PM 50.0 °F - 33.8 °F 54% 30.15 in - NE 8.1 mph - N/A   Clear
4:20 PM 50.0 °F - 33.8 °F 54% 30.15 in - Variable 6.9 mph - N/A   Clear
4:50 PM 48.2 °F - 33.8 °F 58% 30.15 in - NNE 9.2 mph - N/A   Clear
5:20 PM 48.2 °F - 33.8 °F 58% 30.12 in - NNE 8.1 mph - N/A   Clear
5:50 PM 46.4 °F 42.9 °F 33.8 °F 62% 30.12 in - North 6.9 mph - N/A   Clear
6:20 PM 42.8 °F 36.6 °F 32.0 °F 66% 30.12 in - North 11.5 mph - N/A   Clear
6:50 PM 41.0 °F 34.3 °F 33.8 °F 76% 30.12 in - NNW 11.5 mph - N/A   Clear
7:20 PM 39.2 °F 32.5 °F 32.0 °F 75% 30.12 in - NNW 10.4 mph - N/A   Clear
7:50 PM 39.2 °F 32.0 °F 33.8 °F 81% 30.12 in - NNW 11.5 mph - N/A   Clear
8:00 PM 39 °F - 33 °F 70% 30.14 in 6 mi NNW 11.5 mph - -  
8:20 PM 37.4 °F 29.8 °F 32.0 °F 81% 30.12 in - North 11.5 mph - N/A   Clear
8:50 PM 37.4 °F 30.3 °F 32.0 °F 81% 30.12 in - NNW 10.4 mph - N/A   Clear
9:20 PM 37.4 °F 30.8 °F 33.8 °F 87% 30.12 in - NNW 9.2 mph - N/A   Clear
9:50 PM 35.6 °F 29.9 °F 33.8 °F 93% 30.12 in 5.0 mi NNW 6.9 mph - N/A   Unknown
10:20 PM 35.6 °F 30.7 °F 33.8 °F 93% 30.09 in 3.7 mi NNW 5.8 mph - N/A   Unknown
10:50 PM 35.6 °F 32.8 °F 33.8 °F 93% 30.09 in 2.5 mi NNW 3.5 mph - N/A   Mist
11:20 PM 37.4 °F - 33.8 °F 87% 30.09 in 2.5 mi NW 1.2 mph - N/A   Mist
11:50 PM 39.2 °F - 35.6 °F 87% 30.06 in 3.7 mi West 1.2 mph - N/A   Unknown